Tracking 21612 objects as of 20-Oct-2020
HD Live streaming from Space Station
objects crossing your sky now

DELTA 2 DEB

Track DELTA 2 DEB now!
10-day predictions


NORAD ID: 25138
Int'l Code: 1998-002E
Perigee: 763.9 km
Apogee: 1,256.1 km
Inclination: 26.9 °
Period: 105.2 minutes
Semi major axis: 7380 km
RCS: 3.4668 m2 (large)
Launch date: January 10, 1998
Source: United States (US)
Launch site: AIR FORCE EASTERN TEST RANGE (AFETR)

Note: This is SATELLITE DEBRIS
aabbcc
Your satellite tracking list
Your tracking list is empty




NASA's NSSDC Master Catalog

Two Line Element Set (TLE):
1 25138U 98002E   20293.90510402 +.00000367 +00000-0 +19443-3 0  9995
2 25138 026.8760 218.0690 0333376 121.6119 314.3347 13.69084972138671
Source of the keplerian elements: AFSPC